Notices

What's New in latest Release from April 7th, 2021:

- Updated Glossary, including Speed of Maximum Gust, and Total Hourly Precipitation

- Updated national and regional climate services offices contacts and prices information

- Addition of station inventory lists for 1981-2010, 1971-2000, and 1961-1990 Normals.

If you haven't already, please take our survey and provide feedback about our website: https://eccc.sondage-survey.ca/f/LanguageSelection.aspx?s=442ca660-fcf1-47c0-95a9-59707d6fd709

Hourly Data Report for March 12, 2021

MIRAMICHI RCS
NEW BRUNSWICK
Current Station Operator: ECCC - MSC

47°00'34.000" N
65°27'54.000" W
33.00 m
8100989
71744
ACQ

Download Data

Hourly Data (March 2021)
Hourly Data Report for March 12, 2021
TIME
LST
Temp Definition
°C
Dew Point Definition
°C
Rel Hum Definition
%
Precip. Amount Definition
mm

Wind Dir Definition
10's deg

Wind Spd Definition
km/h
Visibility Definition
km
Stn Press Definition
kPa
Hmdx Definition


Wind Chill Definition


Weather Definition


00:00 4.6 2.4 86 LegendMM 21 16   100.31     LegendNANA
01:00 4.2 2.2 87 LegendMM 22 16   100.20     LegendNANA
02:00 4.2 2.4 88 LegendMM 21 12   100.03     LegendNANA
03:00 4.6 2.4 85 LegendMM 22 17   99.88     LegendNANA
04:00 4.6 2.2 84 LegendMM 23 22   99.79     LegendNANA
05:00 4.5 2.4 86 LegendMM 22 20   99.70     LegendNANA
06:00 4.8 2.0 82 LegendMM 22 18   99.55     LegendNANA
07:00 5.5 2.2 79 LegendMM 22 28   99.55     LegendNANA
08:00 6.3 2.0 74 LegendMM 23 26   99.50     LegendNANA
09:00 8.3 0.9 60 LegendMM 23 30   99.48     LegendNANA
10:00 9.1 -2.7 43 LegendMM 27 37   99.50     LegendNANA
11:00 8.3 -3.1 45 LegendMM 27 38   99.54     LegendNANA
12:00 8.0 -3.3 44 LegendMM 25 37   99.53     LegendNANA
13:00 8.0 -4.6 40 LegendMM 26 43   99.56     LegendNANA
14:00 7.7 -5.3 39 LegendMM 27 41   99.56     LegendNANA
15:00 7.8 -6.1 37 LegendMM 26 36   99.62     LegendNANA
16:00 7.4 -6.6 36 LegendMM 27 41   99.62     LegendNANA
17:00 7.2 -7.2 35 LegendMM 26 36   99.62     LegendNANA
18:00 6.2 -7.1 38 LegendMM 26 25   99.68     LegendNANA
19:00 5.2 -7.2 40 LegendMM 26 24   99.70     LegendNANA
20:00 4.4 -7.0 43 LegendMM 25 19   99.71     LegendNANA
21:00 3.6 -7.4 44 LegendMM 24 19   99.71     LegendNANA
22:00 3.5 -7.1 46 LegendMM 25 22   99.68     LegendNANA
23:00 3.0 -6.3 50 LegendMM 25 21   99.64     LegendNANA

Notes on Data Quality.

Legend

  • E = Estimated
  • M = Missing
  • NA = Not Available*
  • [empty] = Indicates an unobserved value
Date modified: